"Sample Date","Sample Time","Sensor Name","Sample Value","Units","Flow Rate","Sample Interval","Sample Volume","Laser Status","Number Channels","Micron Size 0","Counts/Channel 0","Micron Size 1","Counts/Channel 1","Micron Size 2","Counts/Channel 2","Micron Size 3","Counts/Channel 3","Micron Size 4","Counts/Channel 4","Micron Size 5","Counts/Channel 5","Micron Size 6","Counts/Channel 6","Micron Size 7","Counts/Channel 7","Micron Size 8","Counts/Channel 8","Micron Size 9","Counts/Channel 9","Micron Size 10","Counts/Channel 10","Micron Size 11","Counts/Channel 11","Micron Size 12","Counts/Channel 12","Micron Size 13","Counts/Channel 13","Micron Size 14","Counts/Channel 14","Micron Size 15","Counts/Channel 15","Micron Size 16","Counts/Channel 16","Micron Size 17","Counts/Channel 17","Micron Size 18","Counts/Channel 18","Micron Size 19","Counts/Channel 19","Micron Size 20","Counts/Channel 20","Micron Size 21","Counts/Channel 21","Micron Size 22","Counts/Channel 22","Micron Size 23","Counts/Channel 23","Micron Size 24","Counts/Channel 24","Micron Size 25","Counts/Channel 25","Micron Size 26","Counts/Channel 26","Micron Size 27","Counts/Channel 27","Micron Size 28","Counts/Channel 28","Micron Size 29","Counts/Channel 29","Micron Size 30","Counts/Channel 30","Micron Size 31","Counts/Channel 31"
"07/09/06","06:00:01","AMMA06",30440.000,"cc",28269.330,6.00,2826.933,1,6,0.100,17625.000,0.200,10962.000,0.300,1402.000,0.500,309.000,1.000,142.000,5.000,0
"07/09/06","06:00:07","AMMA06",29760.000,"cc",28368.070,6.00,2836.807,1,6,0.100,17356.000,0.200,10766.000,0.300,1319.000,0.500,210.000,1.000,109.000,5.000,0
"07/09/06","06:00:13","AMMA06",29552.000,"cc",28287.438,6.00,2828.744,1,6,0.100,17147.000,0.200,10812.000,0.300,1273.000,0.500,195.000,1.000,125.000,5.000,0
"07/09/06","06:00:19","AMMA06",29698.000,"cc",28330.957,6.00,2833.096,1,6,0.100,17374.000,0.200,10878.000,0.300,1167.000,0.500,178.000,1.000,101.000,5.000,0
"07/09/06","06:00:25","AMMA06",29746.000,"cc",28368.053,6.00,2836.805,1,6,0.100,17304.000,0.200,10853.000,0.300,1264.000,0.500,207.000,1.000,118.000,5.000,0
"07/09/06","06:00:31","AMMA06",30054.000,"cc",28304.293,6.00,2830.429,1,6,0.100,17524.000,0.200,10897.000,0.300,1276.000,0.500,230.000,1.000,127.000,5.000,0
"07/09/06","06:00:37","AMMA06",29392.000,"cc",28336.449,6.00,2833.645,1,6,0.100,17064.000,0.200,10854.000,0.300,1194.000,0.500,162.000,1.000,118.000,5.000,0
"07/09/06","06:00:43","AMMA06",29422.000,"cc",28313.832,6.00,2831.383,1,6,0.100,17035.000,0.200,10872.000,0.300,1245.000,0.500,167.000,1.000,103.000,5.000,0
"07/09/06","06:00:49","AMMA06",29443.000,"cc",28315.106,6.00,2831.511,1,6,0.100,17195.000,0.200,10880.000,0.300,1123.000,0.500,147.000,1.000,98.000,5.000,0
"07/09/06","06:00:55","AMMA06",29162.000,"cc",28302.330,6.00,2830.233,1,6,0.100,17134.000,0.200,10661.000,0.300,1099.000,0.500,173.000,1.000,95.000,5.000,0
"07/09/06","06:01:01","AMMA06",29553.000,"cc",28364.574,6.00,2836.458,1,6,0.100,17243.000,0.200,10849.000,0.300,1185.000,0.500,180.000,1.000,96.000,5.000,0
"07/09/06","06:01:07","AMMA06",29379.000,"cc",28303.629,6.00,2830.363,1,6,0.100,17129.000,0.200,10791.000,0.300,1200.000,0.500,156.000,1.000,103.000,5.000,0
"07/09/06","06:01:13","AMMA06",29442.000,"cc",28331.211,6.00,2833.121,1,6,0.100,17168.000,0.200,10809.000,0.300,1179.000,0.500,182.000,1.000,104.000,5.000,0
"07/09/06","06:01:19","AMMA06",29626.000,"cc",28286.127,6.00,2828.613,1,6,0.100,17209.000,0.200,10910.000,0.300,1226.000,0.500,168.000,1.000,113.000,5.000,0
"07/09/06","06:01:25","AMMA06",29306.000,"cc",28299.713,6.00,2829.971,1,6,0.100,16989.000,0.200,10844.000,0.300,1209.000,0.500,165.000,1.000,99.000,5.000,0
"07/09/06","06:01:31","AMMA06",29811.000,"cc",28311.481,6.00,2831.148,1,6,0.100,17489.000,0.200,10829.000,0.300,1215.000,0.500,177.000,1.000,101.000,5.000,0
"07/09/06","06:01:37","AMMA06",29708.000,"cc",28285.092,6.00,2828.509,1,6,0.100,17300.000,0.200,11012.000,0.300,1120.000,0.500,170.000,1.000,106.000,5.000,0
"07/09/06","06:01:43","AMMA06",29491.000,"cc",28321.891,6.00,2832.189,1,6,0.100,17114.000,0.200,10877.000,0.300,1241.000,0.500,155.000,1.000,104.000,5.000,0
"07/09/06","06:01:49","AMMA06",29233.000,"cc",28374.565,6.00,2837.457,1,6,0.100,16915.000,0.200,10836.000,0.300,1236.000,0.500,147.000,1.000,99.000,5.000,0
"07/09/06","06:01:55","AMMA06",29379.000,"cc",28309.020,6.00,2830.902,1,6,0.100,17043.000,0.200,10862.000,0.300,1183.000,0.500,188.000,1.000,103.000,5.000,0
"07/09/06","06:02:01","AMMA06",29618.000,"cc",28302.246,6.00,2830.225,1,6,0.100,17054.000,0.200,11068.000,0.300,1222.000,0.500,175.000,1.000,99.000,5.000,0
"07/09/06","06:02:07","AMMA06",29139.000,"cc",28344.398,6.00,2834.440,1,6,0.100,16868.000,0.200,10750.000,0.300,1235.000,0.500,163.000,1.000,123.000,5.000,0
"07/09/06","06:02:13","AMMA06",29309.000,"cc",28327.645,6.00,2832.765,1,6,0.100,17148.000,0.200,10669.000,0.300,1218.000,0.500,175.000,1.000,99.000,5.000,0
"07/09/06","06:02:19","AMMA06",29371.000,"cc",28329.512,6.00,2832.951,1,6,0.100,17047.000,0.200,10915.000,0.300,1159.000,0.500,148.000,1.000,102.000,5.000,0
"07/09/06","06:02:25","AMMA06",29669.000,"cc",28279.531,6.00,2827.953,1,6,0.100,17255.000,0.200,10974.000,0.300,1185.000,0.500,162.000,1.000,93.000,5.000,0
"07/09/06","06:02:31","AMMA06",29654.000,"cc",28290.111,6.00,2829.011,1,6,0.100,17177.000,0.200,10873.000,0.300,1297.000,0.500,203.000,1.000,104.000,5.000,0
"07/09/06","06:02:37","AMMA06",29635.000,"cc",28308.570,6.00,2830.857,1,6,0.100,17207.000,0.200,10922.000,0.300,1201.000,0.500,192.000,1.000,113.000,5.000,0
"07/09/06","06:02:43","AMMA06",29966.000,"cc",28338.785,6.00,2833.879,1,6,0.100,17333.000,0.200,11005.000,0.300,1275.000,0.500,225.000,1.000,128.000,5.000,0
"07/09/06","06:02:49","AMMA06",29439.000,"cc",28314.928,6.00,2831.493,1,6,0.100,17164.000,0.200,10850.000,0.300,1174.000,0.500,156.000,1.000,95.000,5.000,0
"07/09/06","06:02:55","AMMA06",29536.000,"cc",28336.553,6.00,2833.656,1,6,0.100,17185.000,0.200,10827.000,0.300,1256.000,0.500,166.000,1.000,102.000,5.000,0
"07/09/06","06:03:01","AMMA06",29872.000,"cc",28349.027,6.00,2834.903,1,6,0.100,17293.000,0.200,10989.000,0.300,1307.000,0.500,178.000,1.000,105.000,5.000,0
"07/09/06","06:03:07","AMMA06",29839.000,"cc",28325.934,6.00,2832.594,1,6,0.100,17333.000,0.200,10993.000,0.300,1231.000,0.500,182.000,1.000,100.000,5.000,0
"07/09/06","06:03:13","AMMA06",30159.000,"cc",28354.326,6.00,2835.433,1,6,0.100,17425.000,0.200,11057.000,0.300,1347.000,0.500,220.000,1.000,110.000,5.000,0
"07/09/06","06:03:19","AMMA06",29495.000,"cc",28298.398,6.00,2829.840,1,6,0.100,17084.000,0.200,10868.000,0.300,1279.000,0.500,171.000,1.000,93.000,5.000,0
"07/09/06","06:03:25","AMMA06",30217.000,"cc",28272.049,6.00,2827.205,1,6,0.100,17503.000,0.200,10929.000,0.300,1447.000,0.500,233.000,1.000,105.000,5.000,0
"07/09/06","06:03:31","AMMA06",29666.000,"cc",28337.621,6.00,2833.762,1,6,0.100,16950.000,0.200,11096.000,0.300,1293.000,0.500,206.000,1.000,121.000,5.000,0
"07/09/06","06:03:37","AMMA06",29718.000,"cc",28368.092,6.00,2836.809,1,6,0.100,17219.000,0.200,10950.000,0.300,1276.000,0.500,182.000,1.000,91.000,5.000,0
"07/09/06","06:03:43","AMMA06",29980.000,"cc",28315.766,6.00,2831.577,1,6,0.100,17162.000,0.200,11153.000,0.300,1355.000,0.500,199.000,1.000,111.000,5.000,0
"07/09/06","06:03:49","AMMA06",29937.000,"cc",28288.125,6.00,2828.813,1,6,0.100,17133.000,0.200,11176.000,0.300,1373.000,0.500,174.000,1.000,81.000,5.000,0
"07/09/06","06:03:55","AMMA06",30078.000,"cc",28295.004,6.00,2829.501,1,6,0.100,17312.000,0.200,11086.000,0.300,1345.000,0.500,215.000,1.000,120.000,5.000,0
"07/09/06","06:04:01","AMMA06",29648.000,"cc",28290.283,6.00,2829.029,1,6,0.100,17026.000,0.200,10992.000,0.300,1320.000,0.500,191.000,1.000,119.000,5.000,0
"07/09/06","06:04:07","AMMA06",30147.000,"cc",28339.869,6.00,2833.987,1,6,0.100,17227.000,0.200,11301.000,0.300,1264.000,0.500,246.000,1.000,109.000,5.000,0
"07/09/06","06:04:13","AMMA06",29638.000,"cc",28288.471,6.00,2828.847,1,6,0.100,17176.000,0.200,10891.000,0.300,1292.000,0.500,184.000,1.000,95.000,5.000,0
"07/09/06","06:04:19","AMMA06",29284.000,"cc",28316.670,6.00,2831.667,1,6,0.100,17078.000,0.200,10671.000,0.300,1255.000,0.500,166.000,1.000,114.000,5.000,0
"07/09/06","06:04:25","AMMA06",29888.000,"cc",28362.828,6.00,2836.283,1,6,0.100,17314.000,0.200,11057.000,0.300,1240.000,0.500,175.000,1.000,102.000,5.000,0
"07/09/06","06:04:31","AMMA06",30418.000,"cc",28344.404,6.00,2834.441,1,6,0.100,17493.000,0.200,11048.000,0.300,1473.000,0.500,264.000,1.000,140.000,5.000,0
"07/09/06","06:04:37","AMMA06",30557.000,"cc",28270.799,6.00,2827.080,1,6,0.100,17404.000,0.200,11299.000,0.300,1474.000,0.500,255.000,1.000,125.000,5.000,0
"07/09/06","06:04:43","AMMA06",30011.000,"cc",28292.762,6.00,2829.276,1,6,0.100,17214.000,0.200,11036.000,0.300,1404.000,0.500,228.000,1.000,129.000,5.000,0
"07/09/06","06:04:49","AMMA06",30066.000,"cc",28307.313,6.00,2830.731,1,6,0.100,17350.000,0.200,10995.000,0.300,1384.000,0.500,215.000,1.000,122.000,5.000,0
"07/09/06","06:04:55","AMMA06",29605.000,"cc",28313.672,6.00,2831.367,1,6,0.100,17178.000,0.200,10929.000,0.300,1222.000,0.500,182.000,1.000,94.000,5.000,0
"07/09/06","06:05:01","AMMA06",29844.000,"cc",28313.621,6.00,2831.362,1,6,0.100,17297.000,0.200,10896.000,0.300,1313.000,0.500,220.000,1.000,118.000,5.000,0
"07/09/06","06:05:07","AMMA06",29802.000,"cc",28353.981,6.00,2835.398,1,6,0.100,17217.000,0.200,10935.000,0.300,1295.000,0.500,234.000,1.000,121.000,5.000,0
"07/09/06","06:05:13","AMMA06",29946.000,"cc",28357.772,6.00,2835.777,1,6,0.100,17146.000,0.200,11104.000,0.300,1358.000,0.500,217.000,1.000,121.000,5.000,0
"07/09/06","06:05:19","AMMA06",30378.000,"cc",28356.363,6.00,2835.637,1,6,0.100,17568.000,0.200,10939.000,0.300,1431.000,0.500,292.000,1.000,148.000,5.000,0
"07/09/06","06:05:25","AMMA06",29388.000,"cc",28262.402,6.00,2826.241,1,6,0.100,17036.000,0.200,10823.000,0.300,1235.000,0.500,179.000,1.000,115.000,5.000,0
"07/09/06","06:05:31","AMMA06",29756.000,"cc",28295.621,6.00,2829.562,1,6,0.100,17158.000,0.200,10942.000,0.300,1311.000,0.500,226.000,1.000,119.000,5.000,0
"07/09/06","06:05:37","AMMA06",29538.000,"cc",28361.283,6.00,2836.128,1,6,0.100,17189.000,0.200,10824.000,0.300,1247.000,0.500,175.000,1.000,103.000,5.000,0
"07/09/06","06:05:43","AMMA06",29564.000,"cc",28312.803,6.00,2831.281,1,6,0.100,17083.000,0.200,10992.000,0.300,1224.000,0.500,178.000,1.000,87.000,5.000,0
"07/09/06","06:05:49","AMMA06",29496.000,"cc",28284.688,6.00,2828.469,1,6,0.100,17201.000,0.200,10829.000,0.300,1204.000,0.500,168.000,1.000,94.000,5.000,0
"07/09/06","06:05:55","AMMA06",29222.000,"cc",28303.949,6.00,2830.395,1,6,0.100,17177.000,0.200,10591.000,0.300,1186.000,0.500,176.000,1.000,92.000,5.000,0
"07/09/06","06:06:01","AMMA06",29321.000,"cc",28334.852,6.00,2833.485,1,6,0.100,17049.000,0.200,10745.000,0.300,1271.000,0.500,163.000,1.000,93.000,5.000,0
"07/09/06","06:06:07","AMMA06",29272.000,"cc",28318.242,6.00,2831.825,1,6,0.100,17029.000,0.200,10775.000,0.300,1198.000,0.500,177.000,1.000,93.000,5.000,0
"07/09/06","06:06:13","AMMA06",29075.000,"cc",28344.561,6.00,2834.456,1,6,0.100,16885.000,0.200,10751.000,0.300,1195.000,0.500,162.000,1.000,82.000,5.000,0
"07/09/06","06:06:19","AMMA06",29325.000,"cc",28268.190,6.00,2826.819,1,6,0.100,17060.000,0.200,10712.000,0.300,1273.000,0.500,193.000,1.000,87.000,5.000,0
"07/09/06","06:06:25","AMMA06",29662.000,"cc",28312.856,6.00,2831.286,1,6,0.100,17362.000,0.200,10777.000,0.300,1225.000,0.500,190.000,1.000,108.000,5.000,0
"07/09/06","06:06:31","AMMA06",29543.000,"cc",28309.301,6.00,2830.930,1,6,0.100,17333.000,0.200,10699.000,0.300,1206.000,0.500,203.000,1.000,102.000,5.000,0
"07/09/06","06:06:37","AMMA06",29690.000,"cc",28307.311,6.00,2830.731,1,6,0.100,17240.000,0.200,10792.000,0.300,1286.000,0.500,237.000,1.000,135.000,5.000,0
"07/09/06","06:06:43","AMMA06",29925.000,"cc",28325.277,6.00,2832.528,1,6,0.100,17619.000,0.200,10713.000,0.300,1293.000,0.500,194.000,1.000,106.000,5.000,0
"07/09/06","06:06:49","AMMA06",29264.000,"cc",28355.440,6.00,2835.544,1,6,0.100,17093.000,0.200,10671.000,0.300,1221.000,0.500,180.000,1.000,99.000,5.000,0
"07/09/06","06:06:55","AMMA06",29565.000,"cc",28290.631,6.00,2829.063,1,6,0.100,17326.000,0.200,10774.000,0.300,1190.000,0.500,173.000,1.000,102.000,5.000,0
"07/09/06","06:07:01","AMMA06",29874.000,"cc",28317.367,6.00,2831.737,1,6,0.100,17367.000,0.200,10889.000,0.300,1282.000,0.500,213.000,1.000,123.000,5.000,0
"07/09/06","06:07:07","AMMA06",29451.000,"cc",28337.885,6.00,2833.789,1,6,0.100,17297.000,0.200,10596.000,0.300,1261.000,0.500,190.000,1.000,107.000,5.000,0
"07/09/06","06:07:13","AMMA06",29094.000,"cc",28312.574,6.00,2831.258,1,6,0.100,16874.000,0.200,10774.000,0.300,1174.000,0.500,174.000,1.000,97.000,5.000,1.000
"07/09/06","06:07:19","AMMA06",29292.000,"cc",28341.795,6.00,2834.180,1,6,0.100,17136.000,0.200,10664.000,0.300,1237.000,0.500,159.000,1.000,96.000,5.000,0
"07/09/06","06:07:25","AMMA06",29315.000,"cc",28298.666,6.00,2829.867,1,6,0.100,17130.000,0.200,10735.000,0.300,1196.000,0.500,159.000,1.000,95.000,5.000,0
"07/09/06","06:07:31","AMMA06",29340.000,"cc",28317.164,6.00,2831.717,1,6,0.100,17221.000,0.200,10664.000,0.300,1209.000,0.500,158.000,1.000,88.000,5.000,0
"07/09/06","06:07:37","AMMA06",28996.000,"cc",28327.748,6.00,2832.775,1,6,0.100,16828.000,0.200,10752.000,0.300,1157.000,0.500,165.000,1.000,94.000,5.000,0
"07/09/06","06:07:43","AMMA06",28946.000,"cc",28302.461,6.00,2830.246,1,6,0.100,17032.000,0.200,10455.000,0.300,1181.000,0.500,183.000,1.000,95.000,5.000,0
"07/09/06","06:07:49","AMMA06",29287.000,"cc",28288.695,6.00,2828.870,1,6,0.100,17134.000,0.200,10700.000,0.300,1196.000,0.500,162.000,1.000,95.000,5.000,0
"07/09/06","06:07:55","AMMA06",29103.000,"cc",28276.402,6.00,2827.640,1,6,0.100,17074.000,0.200,10590.000,0.300,1197.000,0.500,140.000,1.000,102.000,5.000,0
"07/09/06","06:08:01","AMMA06",29279.000,"cc",28313.318,6.00,2831.332,1,6,0.100,17341.000,0.200,10526.000,0.300,1147.000,0.500,179.000,1.000,86.000,5.000,0
"07/09/06","06:08:07","AMMA06",29137.000,"cc",28336.205,6.00,2833.621,1,6,0.100,17043.000,0.200,10657.000,0.300,1183.000,0.500,149.000,1.000,105.000,5.000,0
"07/09/06","06:08:13","AMMA06",29290.000,"cc",28372.084,6.00,2837.209,1,6,0.100,17089.000,0.200,10666.000,0.300,1219.000,0.500,217.000,1.000,99.000,5.000,0
"07/09/06","06:08:19","AMMA06",29378.000,"cc",28288.463,6.00,2828.846,1,6,0.100,17103.000,0.200,10709.000,0.300,1273.000,0.500,170.000,1.000,123.000,5.000,0
"07/09/06","06:08:25","AMMA06",29889.000,"cc",28238.426,6.00,2823.843,1,6,0.100,17423.000,0.200,10806.000,0.300,1303.000,0.500,235.000,1.000,122.000,5.000,0
"07/09/06","06:08:31","AMMA06",29888.000,"cc",28342.686,6.00,2834.269,1,6,0.100,17316.000,0.200,10865.000,0.300,1332.000,0.500,242.000,1.000,133.000,5.000,0
"07/09/06","06:08:37","AMMA06",29617.000,"cc",28351.178,6.00,2835.118,1,6,0.100,17398.000,0.200,10555.000,0.300,1309.000,0.500,228.000,1.000,127.000,5.000,0
"07/09/06","06:08:43","AMMA06",29164.000,"cc",28341.031,6.00,2834.103,1,6,0.100,17126.000,0.200,10523.000,0.300,1221.000,0.500,183.000,1.000,111.000,5.000,0
"07/09/06","06:08:49","AMMA06",29146.000,"cc",28306.940,6.00,2830.694,1,6,0.100,17140.000,0.200,10547.000,0.300,1201.000,0.500,159.000,1.000,99.000,5.000,0
"07/09/06","06:08:55","AMMA06",29123.000,"cc",28295.092,6.00,2829.509,1,6,0.100,17270.000,0.200,10396.000,0.300,1184.000,0.500,153.000,1.000,120.000,5.000,0
"07/09/06","06:09:01","AMMA06",29158.000,"cc",28327.977,6.00,2832.798,1,6,0.100,17272.000,0.200,10474.000,0.300,1159.000,0.500,159.000,1.000,94.000,5.000,0
"07/09/06","06:09:07","AMMA06",29083.000,"cc",28308.920,6.00,2830.892,1,6,0.100,17203.000,0.200,10481.000,0.300,1141.000,0.500,171.000,1.000,87.000,5.000,0
"07/09/06","06:09:13","AMMA06",29305.000,"cc",28366.150,6.00,2836.615,1,6,0.100,17111.000,0.200,10720.000,0.300,1198.000,0.500,179.000,1.000,97.000,5.000,0
"07/09/06","06:09:19","AMMA06",29004.000,"cc",28286.318,6.00,2828.632,1,6,0.100,17119.000,0.200,10452.000,0.300,1173.000,0.500,165.000,1.000,95.000,5.000,0
"07/09/06","06:09:25","AMMA06",29267.000,"cc",28321.357,6.00,2832.136,1,6,0.100,17196.000,0.200,10580.000,0.300,1202.000,0.500,195.000,1.000,94.000,5.000,0
"07/09/06","06:09:31","AMMA06",29529.000,"cc",28316.527,6.00,2831.653,1,6,0.100,17275.000,0.200,10756.000,0.300,1209.000,0.500,183.000,1.000,106.000,5.000,0
"07/09/06","06:09:37","AMMA06",29186.000,"cc",28312.693,6.00,2831.270,1,6,0.100,17108.000,0.200,10632.000,0.300,1180.000,0.500,164.000,1.000,102.000,5.000,0
"07/09/06","06:09:43","AMMA06",29052.000,"cc",28286.963,6.00,2828.697,1,6,0.100,16992.000,0.200,10628.000,0.300,1179.000,0.500,159.000,1.000,94.000,5.000,0
"07/09/06","06:09:49","AMMA06",29077.000,"cc",28334.715,6.00,2833.472,1,6,0.100,16946.000,0.200,10684.000,0.300,1226.000,0.500,144.000,1.000,77.000,5.000,0
"07/09/06","06:09:55","AMMA06",29238.000,"cc",28321.551,6.00,2832.155,1,6,0.100,17191.000,0.200,10548.000,0.300,1190.000,0.500,205.000,1.000,104.000,5.000,0
"07/09/06","06:10:01","AMMA06",29167.000,"cc",28323.777,6.00,2832.378,1,6,0.100,17112.000,0.200,10654.000,0.300,1171.000,0.500,156.000,1.000,74.000,5.000,0
"07/09/06","06:10:07","AMMA06",28902.000,"cc",28343.193,6.00,2834.320,1,6,0.100,16880.000,0.200,10494.000,0.300,1256.000,0.500,174.000,1.000,98.000,5.000,0
"07/09/06","06:10:13","AMMA06",29118.000,"cc",28306.299,6.00,2830.630,1,6,0.100,17112.000,0.200,10479.000,0.300,1219.000,0.500,190.000,1.000,118.000,5.000,0
"07/09/06","06:10:19","AMMA06",29426.000,"cc",28313.971,6.00,2831.397,1,6,0.100,17088.000,0.200,10866.000,0.300,1158.000,0.500,200.000,1.000,114.000,5.000,0
"07/09/06","06:10:25","AMMA06",29338.000,"cc",28344.141,6.00,2834.414,1,6,0.100,17108.000,0.200,10822.000,0.300,1157.000,0.500,165.000,1.000,86.000,5.000,0
"07/09/06","06:10:31","AMMA06",29067.000,"cc",28329.811,6.00,2832.981,1,6,0.100,17095.000,0.200,10564.000,0.300,1185.000,0.500,142.000,1.000,81.000,5.000,0
"07/09/06","06:10:37","AMMA06",28960.000,"cc",28356.004,6.00,2835.601,1,6,0.100,17109.000,0.200,10466.000,0.300,1146.000,0.500,162.000,1.000,77.000,5.000,0
"07/09/06","06:10:43","AMMA06",29077.000,"cc",28309.389,6.00,2830.939,1,6,0.100,16926.000,0.200,10647.000,0.300,1259.000,0.500,149.000,1.000,96.000,5.000,0
"07/09/06","06:10:49","AMMA06",28922.000,"cc",28292.098,6.00,2829.210,1,6,0.100,17085.000,0.200,10396.000,0.300,1177.000,0.500,168.000,1.000,96.000,5.000,0
"07/09/06","06:10:55","AMMA06",29101.000,"cc",28323.162,6.00,2832.316,1,6,0.100,17105.000,0.200,10582.000,0.300,1137.000,0.500,178.000,1.000,99.000,5.000,0
"07/09/06","06:11:01","AMMA06",28724.000,"cc",28328.725,6.00,2832.873,1,6,0.100,16720.000,0.200,10478.000,0.300,1259.000,0.500,163.000,1.000,104.000,5.000,0
"07/09/06","06:11:07","AMMA06",28783.000,"cc",28284.356,6.00,2828.436,1,6,0.100,17032.000,0.200,10366.000,0.300,1108.000,0.500,165.000,1.000,112.000,5.000,0
"07/09/06","06:11:13","AMMA06",28887.000,"cc",28377.035,6.00,2837.704,1,6,0.100,16987.000,0.200,10497.000,0.300,1160.000,0.500,145.000,1.000,98.000,5.000,0
"07/09/06","06:11:19","AMMA06",29140.000,"cc",28294.186,6.00,2829.419,1,6,0.100,17032.000,0.200,10614.000,0.300,1225.000,0.500,158.000,1.000,111.000,5.000,0
"07/09/06","06:11:25","AMMA06",28868.000,"cc",28306.422,6.00,2830.642,1,6,0.100,16892.000,0.200,10588.000,0.300,1143.000,0.500,162.000,1.000,83.000,5.000,0
"07/09/06","06:11:31","AMMA06",28928.000,"cc",28299.584,6.00,2829.959,1,6,0.100,16846.000,0.200,10623.000,0.300,1179.000,0.500,174.000,1.000,106.000,5.000,0
"07/09/06","06:11:37","AMMA06",30056.000,"cc",28317.553,6.00,2831.755,1,6,0.100,17558.000,0.200,10788.000,0.300,1331.000,0.500,274.000,1.000,105.000,5.000,0
"07/09/06","06:11:43","AMMA06",29489.000,"cc",28311.104,6.00,2831.111,1,6,0.100,17135.000,0.200,10699.000,0.300,1312.000,0.500,212.000,1.000,131.000,5.000,0
"07/09/06","06:11:49","AMMA06",29071.000,"cc",28314.559,6.00,2831.456,1,6,0.100,16811.000,0.200,10751.000,0.300,1241.000,0.500,176.000,1.000,92.000,5.000,0
"07/09/06","06:11:55","AMMA06",28784.000,"cc",28301.520,6.00,2830.152,1,6,0.100,16874.000,0.200,10446.000,0.300,1192.000,0.500,165.000,1.000,107.000,5.000,0
"07/09/06","06:12:01","AMMA06",29064.000,"cc",28301.607,6.00,2830.161,1,6,0.100,16965.000,0.200,10658.000,0.300,1199.000,0.500,152.000,1.000,90.000,5.000,0
"07/09/06","06:12:07","AMMA06",28973.000,"cc",28332.641,6.00,2833.264,1,6,0.100,16961.000,0.200,10539.000,0.300,1212.000,0.500,167.000,1.000,94.000,5.000,0
"07/09/06","06:12:13","AMMA06",28860.000,"cc",28300.279,6.00,2830.028,1,6,0.100,16975.000,0.200,10485.000,0.300,1166.000,0.500,154.000,1.000,80.000,5.000,0
"07/09/06","06:12:19","AMMA06",28746.000,"cc",28321.313,6.00,2832.131,1,6,0.100,16870.000,0.200,10437.000,0.300,1199.000,0.500,143.000,1.000,97.000,5.000,0
"07/09/06","06:12:25","AMMA06",29169.000,"cc",28330.406,6.00,2833.041,1,6,0.100,17028.000,0.200,10669.000,0.300,1235.000,0.500,149.000,1.000,88.000,5.000,0
"07/09/06","06:12:31","AMMA06",28854.000,"cc",28348.287,6.00,2834.829,1,6,0.100,16830.000,0.200,10564.000,0.300,1205.000,0.500,156.000,1.000,99.000,5.000,0
"07/09/06","06:12:37","AMMA06",28986.000,"cc",28293.924,6.00,2829.393,1,6,0.100,16848.000,0.200,10675.000,0.300,1186.000,0.500,180.000,1.000,97.000,5.000,0
"07/09/06","06:12:43","AMMA06",28870.000,"cc",28286.607,6.00,2828.661,1,6,0.100,16825.000,0.200,10568.000,0.300,1217.000,0.500,160.000,1.000,100.000,5.000,0
"07/09/06","06:12:49","AMMA06",28626.000,"cc",28340.857,6.00,2834.086,1,6,0.100,16684.000,0.200,10493.000,0.300,1207.000,0.500,151.000,1.000,91.000,5.000,0
"07/09/06","06:12:55","AMMA06",28900.000,"cc",28282.709,6.00,2828.271,1,6,0.100,16750.000,0.200,10712.000,0.300,1221.000,0.500,142.000,1.000,75.000,5.000,0
"07/09/06","06:13:01","AMMA06",28849.000,"cc",28386.600,6.00,2838.660,1,6,0.100,16922.000,0.200,10497.000,0.300,1181.000,0.500,165.000,1.000,84.000,5.000,0
"07/09/06","06:13:07","AMMA06",28967.000,"cc",28324.256,6.00,2832.426,1,6,0.100,16931.000,0.200,10582.000,0.300,1197.000,0.500,162.000,1.000,95.000,5.000,0
"07/09/06","06:13:13","AMMA06",28952.000,"cc",28281.414,6.00,2828.142,1,6,0.100,17102.000,0.200,10425.000,0.300,1177.000,0.500,167.000,1.000,81.000,5.000,0
"07/09/06","06:13:19","AMMA06",28734.000,"cc",28388.375,6.00,2838.838,1,6,0.100,16905.000,0.200,10422.000,0.300,1158.000,0.500,150.000,1.000,99.000,5.000,0
"07/09/06","06:13:25","AMMA06",28912.000,"cc",28345.590,6.00,2834.559,1,6,0.100,16850.000,0.200,10478.000,0.300,1245.000,0.500,208.000,1.000,131.000,5.000,0
"07/09/06","06:13:31","AMMA06",28742.000,"cc",28254.086,6.00,2825.409,1,6,0.100,16782.000,0.200,10413.000,0.300,1246.000,0.500,194.000,1.000,107.000,5.000,0
"07/09/06","06:13:37","AMMA06",29077.000,"cc",28315.777,6.00,2831.578,1,6,0.100,17092.000,0.200,10535.000,0.300,1179.000,0.500,167.000,1.000,104.000,5.000,0
"07/09/06","06:13:43","AMMA06",28999.000,"cc",28310.928,6.00,2831.093,1,6,0.100,17175.000,0.200,10430.000,0.300,1137.000,0.500,163.000,1.000,94.000,5.000,0
"07/09/06","06:13:49","AMMA06",28968.000,"cc",28311.205,6.00,2831.121,1,6,0.100,17030.000,0.200,10511.000,0.300,1182.000,0.500,140.000,1.000,105.000,5.000,0
"07/09/06","06:13:55","AMMA06",28820.000,"cc",28304.668,6.00,2830.467,1,6,0.100,16940.000,0.200,10346.000,0.300,1237.000,0.500,185.000,1.000,112.000,5.000,0
"07/09/06","06:14:01","AMMA06",28986.000,"cc",28338.832,6.00,2833.883,1,6,0.100,17053.000,0.200,10476.000,0.300,1183.000,0.500,182.000,1.000,92.000,5.000,0
"07/09/06","06:14:07","AMMA06",28704.000,"cc",28330.990,6.00,2833.099,1,6,0.100,16859.000,0.200,10406.000,0.300,1186.000,0.500,168.000,1.000,85.000,5.000,0
"07/09/06","06:14:13","AMMA06",28747.000,"cc",28300.000,6.00,2830.000,1,6,0.100,16933.000,0.200,10356.000,0.300,1189.000,0.500,166.000,1.000,103.000,5.000,0
"07/09/06","06:14:19","AMMA06",28923.000,"cc",28303.379,6.00,2830.338,1,6,0.100,17080.000,0.200,10362.000,0.300,1191.000,0.500,181.000,1.000,109.000,5.000,0